Flag for U.S.A. Weather past 2 weeks in Stillwater, Minnesota, U.S.A.

Now
34 °F

Overcast.


Feels Like: 27 °F
Forecast: 24 / 34 °F
Wind: 9 mph from North

Location: St. Paul Downtown Holman Field

Current Time: Jan 27, 2015 at 3:17:49 AM

Latest Report: Jan 27, 2015 at 2:53 AM


Visibility: 10 mi

Pressure: 30.07 "Hg

Humidity: 73%

Dew point: 26 °F

Location of StillwaterLocation

Historic Weather in Stillwater — Graph

°F

Stillwater temperature yesterday

Maximum temperature yesterday: 44 °F (at 2:53 PM)
Minimum temperature yesterday: 22 °F (at 12:53 AM)
Average temperature yesterday: 34 °F

Past Weeks' High & Low Weather Summary

 TemperatureHumidityPressure
High44 °F (Jan 26, 2:53 PM)100% (Jan 24, 6:53 AM)30.87 "Hg (Jan 24, 6:53 AM)
Low-12 °F (Jan 13, 7:53 AM)52% (Jan 25, 3:53 PM)29.52 "Hg (Jan 17, 12:53 PM)
Average25 °F79%30.07 "Hg
* Reported Jan 12 1:53 AM — Jan 27 1:53 AM, Stillwater, Weather by CustomWeather, © 2014

Note: Actual official high and low records may vary slightly from our data, if they occured in-between our weather recording intervals... More about our weather records

Advertising

Stillwater weather history for previous 24 hours

 ConditionsComfort  
Time TempWeatherWind HumidityBarometerVisibility
1:53 AM
Jan 27
35 °FOvercast.5 mph72%30.05 "Hg10 mi
12:53 AM35 °FOvercast.8 mph72%30.03 "Hg10 mi
11:53 PM
Jan 26
36 °FOvercast.10 mph73%30.01 "Hg10 mi
10:53 PM37 °FOvercast.13 mph73%29.98 "Hg10 mi
9:53 PM38 °FOvercast.9 mph73%29.95 "Hg10 mi
8:53 PM37 °FOvercast.7 mph76%29.94 "Hg10 mi
7:53 PM39 °FOvercast.9 mph70%29.92 "Hg10 mi
6:53 PM39 °FOvercast.10 mph70%29.89 "Hg10 mi
5:53 PM40 °FOvercast.13 mph77%29.85 "Hg10 mi
4:53 PM41 °FMore clouds than sun.13 mph70%29.83 "Hg10 mi
3:53 PM42 °FMostly cloudy.13 mph71%29.79 "Hg10 mi
2:53 PM44 °FMostly cloudy.14 mph65%29.77 "Hg10 mi
1:53 PM43 °FMostly cloudy.12 mph68%29.75 "Hg10 mi
12:53 PM42 °FOvercast.12 mph68%29.74 "Hg10 mi
11:53 AM41 °FPartly sunny.17 mph70%29.74 "Hg10 mi
10:53 AM37 °FOvercast.9 mph79%29.74 "Hg10 mi
9:53 AM32 °FOvercast.3 mph88%29.72 "Hg7 mi
8:53 AM30 °FOvercast.6 mph92%29.74 "Hg10 mi
7:53 AM30 °FOvercast.6 mph89%29.75 "Hg10 mi
6:53 AM28 °FOvercast.8 mph89%29.76 "Hg9 mi
5:53 AM26 °FMostly cloudy.10 mph88%29.78 "Hg10 mi
4:53 AM25 °FOvercast.8 mph88%29.82 "Hg8 mi
3:53 AM25 °FOvercast.9 mph81%29.85 "Hg10 mi
Weather by CustomWeather, © 2014

See weather overviewHow to use our weather pages